Fort Leonard Wood, MO

5:18 AM CDT on October 16, 2019 (GMT -0500)
Waynesville Regional At Forney Field

Weather History for KTBN - May, 2019

Change the Weather History Date:

Tuesday, May 21, 2019

  Actual Average Record
Temperature  
Mean Temperature 62 °F -  
Max Temperature 72 °F 74 °F 91 °F (1998)
Min Temperature 53 °F 57 °F 42 °F (2002)
Degree Days  
Heating Degree Days 3    
Growing Degree Days 12 (Base 50)    
Moisture  
Dew Point 60 °F    
Average Humidity 89    
Maximum Humidity 100    
Minimum Humidity 78    
Precipitation  
Precipitation 0.91 in - - ()
Sea Level Pressure  
Sea Level Pressure 29.66 in    
Wind  
Wind Speed 15 mph (SSE)    
Max Wind Speed 24 mph    
Max Gust Speed 55 mph    
Visibility 8 miles    
Events Fog , Rain , Thunderstorm    
Averages and records for this station are not official NWS values.
T = Trace of Precipitation, MM = Missing Value Source: NWS Daily Summary

Daily Weather History Graph

Daily Weather History Graph

Search for Another Location

Airport or City:

Astronomy

May. 21, 2019 Rise Set
Actual Time 5:54 AM CDT 8:16 PM CDT
Civil Twilight 5:24 AM CDT 8:46 PM CDT
Nautical Twilight 4:47 AM CDT 9:23 PM CDT
Astronomical Twilight 4:07 AM CDT 10:03 PM CDT
Moon 11:11 PM CDT (5/21) 8:11 AM CDT (5/21)
Length of Visible Light 15h 21m
Length of Day
14h 22m
Waning Gibbous, 91% of the Moon is Illuminated
May 21
Waning Gibbous
May 26
Last Quarter
Jun 3
New
Jun 10
First Quarter
Jun 17
Full

Hourly Weather History & Observations

Time (CDT) Temp. Dew Point Humidity Pressure Visibility Wind Dir Wind Speed Gust Speed Precip Events Conditions
6:56 AM 53.6 °F 51.8 °F 94% 29.78 in 7.0 mi ESE 17.3 mph 33.4 mph N/A   Overcast
7:56 AM 60.4 °F 60.1 °F 99% 29.76 in 10.0 mi ESE 13.8 mph 20.7 mph N/A   Unknown
8:01 AM 60.8 °F 60.8 °F 100% 29.77 in 10.0 mi ESE 15.0 mph - N/A   Overcast
8:21 AM 60.8 °F 60.8 °F 100% 29.77 in 10.0 mi ESE 19.6 mph - N/A   Overcast
8:56 AM 61.2 °F 60.3 °F 97% 29.78 in 10.0 mi ESE 16.1 mph 25.3 mph N/A   Overcast
9:56 AM 62.1 °F 58.8 °F 89% 29.75 in 10.0 mi ESE 20.7 mph 32.2 mph N/A   Overcast
10:56 AM 64.4 °F 59.4 °F 84% 29.71 in 10.0 mi ESE 23.0 mph 31.1 mph N/A   Mostly Cloudy
11:16 AM 64.4 °F 59.0 °F 83% 29.69 in 10.0 mi ESE 20.7 mph 28.8 mph N/A   Mostly Cloudy
11:56 AM 65.3 °F 60.6 °F 85% 29.68 in 10.0 mi SE 24.2 mph 29.9 mph N/A   Overcast
12:56 PM 67.3 °F 61.9 °F 83% 29.67 in 10.0 mi SE 21.9 mph 29.9 mph N/A   Overcast
1:41 PM 69.8 °F 64.4 °F 83% 29.64 in 10.0 mi SE 23.0 mph 36.8 mph N/A   Mostly Cloudy
1:56 PM 70.5 °F 63.7 °F 79% 29.62 in 10.0 mi ESE 24.2 mph 34.5 mph N/A   Mostly Cloudy
2:46 PM 71.6 °F 64.4 °F 78% 29.60 in 10.0 mi SE 20.7 mph 28.8 mph N/A   Mostly Cloudy
2:56 PM 71.1 °F 64.6 °F 80% 29.59 in 10.0 mi SE 19.6 mph 29.9 mph N/A   Mostly Cloudy
3:52 PM 71.6 °F 64.4 °F 78% 29.57 in 10.0 mi SE 17.3 mph 24.2 mph N/A   Mostly Cloudy
3:56 PM 71.8 °F 65.3 °F 80% 29.56 in 10.0 mi SE 16.1 mph 24.2 mph N/A Thunderstorm Mostly Cloudy
4:01 PM 71.6 °F 66.2 °F 83% 29.58 in 10.0 mi SE 19.6 mph 25.3 mph N/A Thunderstorm Thunderstorm
4:04 PM 71.6 °F 64.4 °F 78% 29.60 in 10.0 mi South 11.5 mph 25.3 mph N/A Thunderstorm Thunderstorm
4:06 PM 71.6 °F 66.2 °F 83% 29.64 in 10.0 mi SW 21.9 mph 55.2 mph N/A Rain , Thunderstorm Light Thunderstorms and Rain
4:16 PM 62.6 °F 59.0 °F 88% 29.70 in 0.4 mi SW 15.0 mph 55.2 mph N/A Rain , Thunderstorm Heavy Thunderstorms and Rain
4:21 PM 60.8 °F 59.0 °F 94% 29.66 in 0.4 mi West 9.2 mph 27.6 mph N/A Fog , Rain , Thunderstorm Heavy Thunderstorms and Rain
4:26 PM 60.8 °F 57.2 °F 88% 29.63 in 1.6 mi West 5.8 mph 27.6 mph N/A Rain , Thunderstorm Thunderstorms and Rain
4:31 PM 60.8 °F 59.0 °F 94% 29.66 in 2.8 mi West 5.8 mph 18.4 mph N/A Rain , Thunderstorm Thunderstorms and Rain
4:32 PM 60.8 °F 59.0 °F 94% 29.66 in 2.8 mi West 5.8 mph 18.4 mph N/A Rain , Thunderstorm Rain
4:37 PM 60.8 °F 59.0 °F 94% 29.67 in 5.0 mi WSW 4.6 mph - N/A Rain , Thunderstorm Light Rain
4:42 PM 60.8 °F 59.0 °F 94% 29.65 in 9.0 mi Calm Calm - N/A Rain , Thunderstorm Light Rain
4:46 PM 60.8 °F 59.0 °F 94% 29.65 in 10.0 mi SW 3.5 mph - N/A   Mostly Cloudy
4:56 PM 62.1 °F 60.1 °F 93% 29.65 in 10.0 mi Calm Calm - 0.79 in   Mostly Cloudy
5:08 PM 62.6 °F 59.0 °F 88% 29.67 in 9.0 mi SSE 6.9 mph - N/A Rain Light Rain
5:46 PM 62.6 °F 60.8 °F 94% 29.65 in 7.0 mi SSE 9.2 mph - N/A Rain , Thunderstorm Thunderstorms and Rain
6:28 PM 60.8 °F 57.2 °F 88% 29.60 in 7.0 mi SE 13.8 mph - N/A Rain Light Rain
6:52 PM 60.8 °F 57.2 °F 88% 29.65 in 10.0 mi SSE 11.5 mph - N/A   Mostly Cloudy
6:54 PM 59.0 °F 57.2 °F 94% 29.64 in 10.0 mi SSE 16.1 mph - N/A Rain Light Rain
6:56 PM 59.7 °F 56.5 °F 89% 29.64 in 10.0 mi SE 15.0 mph - 0.12 in Rain Light Rain
7:17 PM 59.0 °F 55.4 °F 88% 29.62 in 10.0 mi SE 13.8 mph - N/A   Partly Cloudy
8:56 PM 57.0 °F 53.4 °F 88% 29.66 in 10.0 mi SSE 11.5 mph - N/A   Mostly Cloudy
9:56 PM 56.3 °F 53.8 °F 91% 29.69 in 10.0 mi South 6.9 mph - N/A   Mostly Cloudy
10:56 PM 57.2 °F 53.6 °F 88% 29.70 in 10.0 mi South 8.1 mph - N/A   Scattered Clouds
11:56 PM 56.1 °F 54.1 °F 93% 29.70 in 10.0 mi SE 9.2 mph - N/A   Clear